Location: Bushey
(51.6333°N, 0.3667°W)
Time: 21:44:47
(UTC+00:00)

ATLAS CENTAUR R/B - Pass Details

Date: 03 March 2021
Orbit: 475 x 670 km, 64.7° (Epoch: 30 March)

Event Time Altitude Azimuth Distance (km) Brightness Sun altitude
Rises 19:57:10 0° 226° (SW) 2,518 5.1 -21.0°
Reaches altitude 10° 19:59:17 10° 229° (SW) 1,642 4.1 -21.3°
Maximum altitude 20:02:54 72° 314° (NW) 507 1.2 -21.9°
Enters shadow 20:03:16 66° 0° (N) 530 1.2 -21.9°
